Time,TemperatureF,DewpointF,PressureIn,WindDirection,WindDirectionDegrees,WindSpeedMPH,WindSpeedGustMPH,Humidity,HourlyPrecipIn,Conditions,Clouds,dailyrainin,SoftwareType,DateUTC
2013-06-20 18:29:00,90.0,67.0,30.12,SW,225,0.7,0.7,47,0.00,,,0.00,WUHU216HW,2013-06-20 23:29:00,
2013-06-20 18:34:00,90.0,67.0,30.12,SW,225,0.7,0.7,47,0.00,,,0.00,WUHU216HW,2013-06-20 23:34:00,
2013-06-20 18:59:00,88.6,65.7,30.12,SW,225,0.4,0.4,47,0.00,,,0.00,WUHU216HW,2013-06-20 23:59:00,
2013-06-20 19:04:00,88.6,65.7,30.12,SW,225,0.4,0.4,47,0.00,,,0.00,WUHU216HW,2013-06-21 00:04:00,
2013-06-20 19:29:00,86.0,65.9,30.13,SSE,158,1.8,1.8,51,0.00,,,0.00,WUHU216HW,2013-06-21 00:29:00,
2013-06-20 19:34:00,86.0,65.9,30.13,SSE,158,1.8,1.8,51,0.00,,,0.00,WUHU216HW,2013-06-21 00:34:00,
2013-06-20 19:59:00,86.4,66.2,30.13,NNW,338,0.4,0.4,51,0.00,,,0.00,WUHU216HW,2013-06-21 00:59:00,
2013-06-20 20:04:00,86.4,66.2,30.13,NNW,338,0.4,0.4,51,0.00,,,0.00,WUHU216HW,2013-06-21 01:04:00,
2013-06-20 20:29:00,85.3,65.3,30.12,NE,45,1.3,1.3,51,0.00,,,0.00,WUHU216HW,2013-06-21 01:29:00,
2013-06-20 20:34:00,85.3,65.3,30.12,NE,45,1.3,1.3,51,0.00,,,0.00,WUHU216HW,2013-06-21 01:34:00,
2013-06-20 20:59:00,84.2,65.3,30.12,SSE,158,1.3,1.3,53,0.00,,,0.00,WUHU216HW,2013-06-21 01:59:00,
2013-06-20 21:04:00,84.2,65.3,30.12,SSE,158,1.3,1.3,53,0.00,,,0.00,WUHU216HW,2013-06-21 02:04:00,
2013-06-20 21:29:00,83.7,64.3,30.12,NNW,338,1.3,1.3,52,0.00,,,0.00,WUHU216HW,2013-06-21 02:29:00,
2013-06-20 21:34:00,83.7,64.3,30.12,NNW,338,1.3,1.3,52,0.00,,,0.00,WUHU216HW,2013-06-21 02:34:00,
2013-06-20 21:59:00,83.5,64.5,30.13,SE,135,2.7,2.7,53,0.00,,,0.00,WUHU216HW,2013-06-21 02:59:00,
2013-06-20 22:04:00,83.5,64.5,30.13,SE,135,2.7,2.7,53,0.00,,,0.00,WUHU216HW,2013-06-21 03:04:00,
2013-06-20 22:29:00,83.2,64.7,30.13,North,0,1.1,1.1,54,0.00,,,0.00,WUHU216HW,2013-06-21 03:29:00,
2013-06-20 22:34:00,83.2,64.7,30.13,North,0,1.1,1.1,54,0.00,,,0.00,WUHU216HW,2013-06-21 03:34:00,
2013-06-20 22:59:00,82.6,64.7,30.11,East,90,2.5,2.5,55,0.00,,,0.00,WUHU216HW,2013-06-21 03:59:00,
2013-06-20 23:01:00,82.6,64.7,30.11,East,90,2.5,2.5,55,0.00,,,0.00,WUHU216HW,2013-06-21 04:01:00,
2013-06-20 23:06:00,82.6,64.7,30.11,East,90,2.5,2.5,55,0.00,,,0.00,WUHU216HW,2013-06-21 04:06:00,
2013-06-20 23:29:00,81.9,64.5,30.11,ENE,68,0.4,0.4,56,0.00,,,0.00,WUHU216HW,2013-06-21 04:29:00,
2013-06-20 23:34:00,81.9,64.5,30.11,ENE,68,0.4,0.4,56,0.00,,,0.00,WUHU216HW,2013-06-21 04:34:00,
2013-06-20 23:59:00,81.4,64.6,30.11,SSW,203,1.3,1.3,57,0.00,,,0.00,WUHU216HW,2013-06-21 04:59:00,